This is the latest recevied weather packets stored in our database for station/object W4KAB. If no packets are shown the sender has not sent any weather packets the latest 1 day(s).
| Time | Temp. | Humidity | Pressure | Rain* | Wind** | Luminosity | Snow |
|---|---|---|---|---|---|---|---|
| 1777987678 | 15° C | 72% | 1017.7 hPa | 0 mm | 0 m/s | 40 W/m² | - |
| 1777987375 | 15° C | 73% | 1017.9 hPa | 0 mm | 0 m/s | 25 W/m² | - |
| 1777987073 | 15° C | 72% | 1017.7 hPa | 0 mm | 0 m/s | 24 W/m² | - |
| 1777986770 | 14.44° C | 75% | 1017.6 hPa | 0 mm | 0 m/s | 23 W/m² | - |
| 1777986468 | 14.44° C | 75% | 1017.7 hPa | 0 mm | 0 m/s | 22 W/m² | - |
| 1777986166 | 13.89° C | 75% | 1017.9 hPa | 0 mm | 0 m/s | 23 W/m² | - |
| 1777985863 | 13.33° C | 77% | 1017.9 hPa | 0 mm | 0 m/s | 20 W/m² | - |
| 1777985560 | 13.33° C | 80% | 1017.7 hPa | 0 mm | 0 m/s | 19 W/m² | - |
| 1777985257 | 12.78° C | 82% | 1017.7 hPa | 0 mm | 0 m/s | 20 W/m² | - |
| 1777984954 | 12.78° C | 82% | 1017.6 hPa | 0 mm | 0 m/s | 19 W/m² | - |
| 1777984649 | 12.22° C | 83% | 1017.7 hPa | 0 mm | 0 m/s | 20 W/m² | - |
| 1777984346 | 12.22° C | 84% | 1017.6 hPa | 0 mm | 0 m/s | 19 W/m² | - |
| 1777984042 | 11.67° C | 84% | 1017.6 hPa | 0 mm | 0 m/s | 17 W/m² | - |
| 1777983740 | 11.67° C | 85% | 1017.6 hPa | 0 mm | 0 m/s | 18 W/m² | - |
| 1777983436 | 11.11° C | 86% | 1017.7 hPa | 0 mm | 0 m/s | 17 W/m² | - |
| 1777983133 | 10.56° C | 86% | 1017.6 hPa | 0 mm | 0 m/s | 17 W/m² | - |
| 1777982830 | 10.56° C | 86% | 1017.5 hPa | 0 mm | 0 m/s | 16 W/m² | - |
| 1777982525 | 10.56° C | 87% | 1017.3 hPa | 0 mm | 0 m/s | 15 W/m² | - |
| 1777982219 | 10° C | 87% | 1017.2 hPa | 0 mm | 0 m/s | 14 W/m² | - |
| 1777981917 | 10° C | 87% | 1017.4 hPa | 0 mm | 0 m/s | 15 W/m² | - |
| 1777981614 | 10° C | 87% | 1017.2 hPa | 0 mm | 0 m/s | 14 W/m² | - |
| 1777981310 | 10° C | 88% | 1017.4 hPa | 0 mm | 0 m/s | 13 W/m² | - |
| 1777981007 | 9.44° C | 88% | 1017.5 hPa | 0 mm | 0 m/s | 12 W/m² | - |
| 1777980703 | 9.44° C | 89% | 1017.3 hPa | 0 mm | 0 m/s | 12 W/m² | - |
| 1777980400 | 9.44° C | 89% | 1017.3 hPa | 0 mm | 0 m/s | 10 W/m² | - |
* Rain latest hour (hover to see other rain measurements)
** Current wind speed in m/s (hover to see current wind gust speed)